#datetime,building,power
2022-09-24T00:00:00,atd,19.99
2022-09-24T00:01:00,atd,20.49
2022-09-24T00:02:00,atd,18.95
2022-09-24T00:03:00,atd,18.81
2022-09-24T00:04:00,atd,20.59
2022-09-24T00:05:00,atd,20.95
2022-09-24T00:06:00,atd,22.66
2022-09-24T00:07:00,atd,21.69
2022-09-24T00:08:00,atd,23.98
2022-09-24T00:09:00,atd,21.60
2022-09-24T00:10:00,atd,18.89
2022-09-24T00:11:00,atd,18.46
2022-09-24T00:12:00,atd,23.97
2022-09-24T00:13:00,atd,20.74
2022-09-24T00:14:00,atd,22.19
2022-09-24T00:15:00,atd,21.64
2022-09-24T00:16:00,atd,20.98
2022-09-24T00:17:00,atd,21.00
2022-09-24T00:18:00,atd,20.65
2022-09-24T00:19:00,atd,19.95
2022-09-24T00:20:00,atd,17.82
2022-09-24T00:21:00,atd,17.66
2022-09-24T00:22:00,atd,18.14
2022-09-24T00:23:00,atd,21.43
2022-09-24T00:24:00,atd,18.83
2022-09-24T00:25:00,atd,19.63
2022-09-24T00:26:00,atd,22.03
2022-09-24T00:27:00,atd,24.88
2022-09-24T00:28:00,atd,26.30
2022-09-24T00:29:00,atd,28.06
2022-09-24T00:30:00,atd,28.26
2022-09-24T00:31:00,atd,27.69
2022-09-24T00:32:00,atd,26.04
2022-09-24T00:33:00,atd,26.56
2022-09-24T00:34:00,atd,24.57
2022-09-24T00:35:00,atd,24.39
2022-09-24T00:36:00,atd,26.01
2022-09-24T00:37:00,atd,25.07
2022-09-24T00:38:00,atd,25.53
2022-09-24T00:39:00,atd,25.35
2022-09-24T00:40:00,atd,26.24
2022-09-24T00:41:00,atd,22.89
2022-09-24T00:42:00,atd,38.64
2022-09-24T00:43:00,atd,25.56
2022-09-24T00:44:00,atd,25.01
2022-09-24T00:45:00,atd,20.22
2022-09-24T00:46:00,atd,25.57
2022-09-24T00:47:00,atd,25.55
2022-09-24T00:48:00,atd,25.99
2022-09-24T00:49:00,atd,24.62
2022-09-24T00:50:00,atd,20.55
2022-09-24T00:51:00,atd,18.41
2022-09-24T00:52:00,atd,23.12
2022-09-24T00:53:00,atd,20.05
2022-09-24T00:54:00,atd,18.22
2022-09-24T00:55:00,atd,20.69
2022-09-24T00:56:00,atd,23.13
2022-09-24T00:57:00,atd,21.20
2022-09-24T00:58:00,atd,20.43
2022-09-24T00:59:00,atd,19.48
2022-09-24T01:00:00,atd,22.91
2022-09-24T01:01:00,atd,23.00
2022-09-24T01:02:00,atd,22.76
2022-09-24T01:03:00,atd,24.13
2022-09-24T01:04:00,atd,24.99
2022-09-24T01:05:00,atd,22.00
2022-09-24T01:06:00,atd,22.60
2022-09-24T01:07:00,atd,22.22
2022-09-24T01:08:00,atd,21.91
2022-09-24T01:09:00,atd,20.50
2022-09-24T01:10:00,atd,21.21
2022-09-24T01:11:00,atd,19.30
2022-09-24T01:12:00,atd,20.32
2022-09-24T01:13:00,atd,20.79
2022-09-24T01:14:00,atd,19.51
2022-09-24T01:15:00,atd,19.86
2022-09-24T01:16:00,atd,21.86
2022-09-24T01:17:00,atd,24.45
2022-09-24T01:18:00,atd,20.21
2022-09-24T01:19:00,atd,26.04
2022-09-24T01:20:00,atd,22.34
2022-09-24T01:21:00,atd,25.08
2022-09-24T01:22:00,atd,27.05
2022-09-24T01:23:00,atd,21.22
2022-09-24T01:24:00,atd,21.63
2022-09-24T01:25:00,atd,20.75
2022-09-24T01:26:00,atd,21.75
2022-09-24T01:27:00,atd,22.11
2022-09-24T01:28:00,atd,17.77
2022-09-24T01:29:00,atd,16.25
2022-09-24T01:30:00,atd,18.38
2022-09-24T01:31:00,atd,15.78
2022-09-24T01:32:00,atd,21.09
2022-09-24T01:33:00,atd,19.53
2022-09-24T01:34:00,atd,20.75
2022-09-24T01:35:00,atd,19.77
2022-09-24T01:36:00,atd,31.12
2022-09-24T01:37:00,atd,32.88
2022-09-24T01:38:00,atd,29.13
2022-09-24T01:39:00,atd,28.68
2022-09-24T01:40:00,atd,22.84
2022-09-24T01:41:00,atd,19.66
2022-09-24T01:42:00,atd,33.18
2022-09-24T01:43:00,atd,21.77
2022-09-24T01:44:00,atd,19.12
2022-09-24T01:45:00,atd,20.58
2022-09-24T01:46:00,atd,19.41
2022-09-24T01:47:00,atd,23.49
2022-09-24T01:48:00,atd,22.92
2022-09-24T01:49:00,atd,23.51
2022-09-24T01:50:00,atd,22.58
2022-09-24T01:51:00,atd,23.55
2022-09-24T01:52:00,atd,23.11
2022-09-24T01:53:00,atd,20.88
2022-09-24T01:54:00,atd,18.12
2022-09-24T01:55:00,atd,18.51
2022-09-24T01:56:00,atd,20.61
2022-09-24T01:57:00,atd,22.53
2022-09-24T01:58:00,atd,18.72
2022-09-24T01:59:00,atd,17.66
2022-09-24T02:00:00,atd,20.35
2022-09-24T02:01:00,atd,40.68
2022-09-24T02:02:00,atd,32.07
2022-09-24T02:03:00,atd,31.44
2022-09-24T02:04:00,atd,35.00
2022-09-24T02:05:00,atd,24.68
2022-09-24T02:06:00,atd,23.62
2022-09-24T02:07:00,atd,26.56
2022-09-24T02:08:00,atd,24.15
2022-09-24T02:09:00,atd,23.12
2022-09-24T02:10:00,atd,23.90
2022-09-24T02:11:00,atd,21.99
2022-09-24T02:12:00,atd,21.81
2022-09-24T02:13:00,atd,22.32
2022-09-24T02:14:00,atd,21.81
2022-09-24T02:15:00,atd,21.67
2022-09-24T02:16:00,atd,23.98
2022-09-24T02:17:00,atd,22.01
2022-09-24T02:18:00,atd,19.37
2022-09-24T02:19:00,atd,18.86
2022-09-24T02:20:00,atd,32.30
2022-09-24T02:21:00,atd,20.58
2022-09-24T02:22:00,atd,18.72
2022-09-24T02:23:00,atd,18.84
2022-09-24T02:24:00,atd,22.06
2022-09-24T02:25:00,atd,22.36
2022-09-24T02:26:00,atd,19.80
2022-09-24T02:27:00,atd,18.20
2022-09-24T02:28:00,atd,22.11
2022-09-24T02:29:00,atd,17.95
2022-09-24T02:30:00,atd,19.05
2022-09-24T02:31:00,atd,23.63
2022-09-24T02:32:00,atd,20.25
2022-09-24T02:33:00,atd,21.75
2022-09-24T02:34:00,atd,20.74
2022-09-24T02:35:00,atd,20.34
2022-09-24T02:36:00,atd,19.01
2022-09-24T02:37:00,atd,22.46
2022-09-24T02:38:00,atd,22.06
2022-09-24T02:39:00,atd,23.55
2022-09-24T02:40:00,atd,21.32
2022-09-24T02:41:00,atd,20.53
2022-09-24T02:42:00,atd,18.26
2022-09-24T02:43:00,atd,21.44
2022-09-24T02:44:00,atd,19.89
2022-09-24T02:45:00,atd,20.09
2022-09-24T02:46:00,atd,24.48
2022-09-24T02:47:00,atd,23.01
2022-09-24T02:48:00,atd,23.57
2022-09-24T02:49:00,atd,19.87
2022-09-24T02:50:00,atd,19.61
2022-09-24T02:51:00,atd,19.27
2022-09-24T02:52:00,atd,16.83
2022-09-24T02:53:00,atd,20.11
2022-09-24T02:54:00,atd,24.71
2022-09-24T02:55:00,atd,26.78
2022-09-24T02:56:00,atd,28.43
2022-09-24T02:57:00,atd,25.63
2022-09-24T02:58:00,atd,29.07
2022-09-24T02:59:00,atd,27.03
2022-09-24T03:00:00,atd,38.28
2022-09-24T03:01:00,atd,24.62
2022-09-24T03:02:00,atd,20.85
2022-09-24T03:03:00,atd,19.62
2022-09-24T03:04:00,atd,21.01
2022-09-24T03:05:00,atd,20.68
2022-09-24T03:06:00,atd,20.47
2022-09-24T03:07:00,atd,21.07
2022-09-24T03:08:00,atd,21.75
2022-09-24T03:09:00,atd,22.54
2022-09-24T03:10:00,atd,22.75
2022-09-24T03:11:00,atd,23.05
2022-09-24T03:12:00,atd,19.18
2022-09-24T03:13:00,atd,20.47
2022-09-24T03:14:00,atd,19.67
2022-09-24T03:15:00,atd,21.41
2022-09-24T03:16:00,atd,20.32
2022-09-24T03:17:00,atd,20.26
2022-09-24T03:18:00,atd,22.00
2022-09-24T03:19:00,atd,18.24
2022-09-24T03:20:00,atd,33.61
2022-09-24T03:21:00,atd,19.72
2022-09-24T03:22:00,atd,20.06
2022-09-24T03:23:00,atd,27.95
2022-09-24T03:24:00,atd,27.41
2022-09-24T03:25:00,atd,25.05
2022-09-24T03:26:00,atd,25.95
2022-09-24T03:27:00,atd,26.99
2022-09-24T03:28:00,atd,25.98
2022-09-24T03:29:00,atd,25.07
2022-09-24T03:30:00,atd,23.59
2022-09-24T03:31:00,atd,22.79
2022-09-24T03:32:00,atd,23.26
2022-09-24T03:33:00,atd,21.01
2022-09-24T03:34:00,atd,20.16
2022-09-24T03:35:00,atd,19.98
2022-09-24T03:36:00,atd,21.18
2022-09-24T03:37:00,atd,23.59
2022-09-24T03:38:00,atd,19.17
2022-09-24T03:39:00,atd,23.38
2022-09-24T03:40:00,atd,23.69
2022-09-24T03:41:00,atd,17.77
2022-09-24T03:42:00,atd,23.34
2022-09-24T03:43:00,atd,21.19
2022-09-24T03:44:00,atd,20.79
2022-09-24T03:45:00,atd,24.79
2022-09-24T03:46:00,atd,23.89
2022-09-24T03:47:00,atd,25.68
2022-09-24T03:48:00,atd,20.75
2022-09-24T03:49:00,atd,21.56
2022-09-24T03:50:00,atd,21.47
2022-09-24T03:51:00,atd,21.06
2022-09-24T03:52:00,atd,21.41
2022-09-24T03:53:00,atd,20.92
2022-09-24T03:54:00,atd,17.00
2022-09-24T03:55:00,atd,22.14
2022-09-24T03:56:00,atd,18.91
2022-09-24T03:57:00,atd,20.04
2022-09-24T03:58:00,atd,20.07
2022-09-24T03:59:00,atd,23.42
2022-09-24T04:00:00,atd,21.82
2022-09-24T04:01:00,atd,19.65
2022-09-24T04:02:00,atd,23.19
2022-09-24T04:03:00,atd,21.80
2022-09-24T04:04:00,atd,17.99
2022-09-24T04:05:00,atd,19.88
2022-09-24T04:06:00,atd,20.55
2022-09-24T04:07:00,atd,18.62
2022-09-24T04:08:00,atd,19.35
2022-09-24T04:09:00,atd,22.64
2022-09-24T04:10:00,atd,19.75
2022-09-24T04:11:00,atd,22.80
2022-09-24T04:12:00,atd,25.20
2022-09-24T04:13:00,atd,24.65
2022-09-24T04:14:00,atd,22.75
2022-09-24T04:15:00,atd,24.18
2022-09-24T04:16:00,atd,22.67
2022-09-24T04:17:00,atd,24.15
2022-09-24T04:18:00,atd,20.16
2022-09-24T04:19:00,atd,30.45
2022-09-24T04:20:00,atd,21.48
2022-09-24T04:21:00,atd,18.00
2022-09-24T04:22:00,atd,17.27
2022-09-24T04:23:00,atd,19.85
2022-09-24T04:24:00,atd,22.81
2022-09-24T04:25:00,atd,23.38
2022-09-24T04:26:00,atd,20.52
2022-09-24T04:27:00,atd,19.05
2022-09-24T04:28:00,atd,19.75
2022-09-24T04:29:00,atd,19.01
2022-09-24T04:30:00,atd,18.93
2022-09-24T04:31:00,atd,20.22
2022-09-24T04:32:00,atd,24.37
2022-09-24T04:33:00,atd,26.77
2022-09-24T04:34:00,atd,23.60
2022-09-24T04:35:00,atd,24.66
2022-09-24T04:36:00,atd,22.79
2022-09-24T04:37:00,atd,20.77
2022-09-24T04:38:00,atd,17.32
2022-09-24T04:39:00,atd,29.44
2022-09-24T04:40:00,atd,23.38
2022-09-24T04:41:00,atd,23.77
2022-09-24T04:42:00,atd,21.80
2022-09-24T04:43:00,atd,19.67
2022-09-24T04:44:00,atd,19.58
2022-09-24T04:45:00,atd,21.55
2022-09-24T04:46:00,atd,33.90
2022-09-24T04:47:00,atd,20.27
2022-09-24T04:48:00,atd,21.87
2022-09-24T04:49:00,atd,22.37
2022-09-24T04:50:00,atd,19.23
2022-09-24T04:51:00,atd,20.94
2022-09-24T04:52:00,atd,18.26
2022-09-24T04:53:00,atd,20.52
2022-09-24T04:54:00,atd,19.37
2022-09-24T04:55:00,atd,21.70
2022-09-24T04:56:00,atd,19.18
2022-09-24T04:57:00,atd,21.19
2022-09-24T04:58:00,atd,20.09
2022-09-24T04:59:00,atd,32.19
2022-09-24T05:00:00,atd,23.11
2022-09-24T05:01:00,atd,20.81
2022-09-24T05:02:00,atd,21.66
2022-09-24T05:03:00,atd,20.01
2022-09-24T05:04:00,atd,23.89
2022-09-24T05:05:00,atd,23.31
2022-09-24T05:06:00,atd,24.17
2022-09-24T05:07:00,atd,24.02
2022-09-24T05:08:00,atd,32.71
2022-09-24T05:09:00,atd,30.01
2022-09-24T05:10:00,atd,31.91
2022-09-24T05:11:00,atd,29.61
2022-09-24T05:12:00,atd,20.61
2022-09-24T05:13:00,atd,21.30
2022-09-24T05:14:00,atd,20.14
2022-09-24T05:15:00,atd,17.69
2022-09-24T05:16:00,atd,18.59
2022-09-24T05:17:00,atd,19.83
2022-09-24T05:18:00,atd,19.30
2022-09-24T05:19:00,atd,28.82
2022-09-24T05:20:00,atd,18.80
2022-09-24T05:21:00,atd,21.45
2022-09-24T05:22:00,atd,23.86
2022-09-24T05:23:00,atd,26.24
2022-09-24T05:24:00,atd,26.82
2022-09-24T05:25:00,atd,23.31
2022-09-24T05:26:00,atd,26.47
2022-09-24T05:27:00,atd,21.51
2022-09-24T05:28:00,atd,21.66
2022-09-24T05:29:00,atd,23.34
2022-09-24T05:30:00,atd,23.13
2022-09-24T05:31:00,atd,19.14
2022-09-24T05:32:00,atd,17.59
2022-09-24T05:33:00,atd,19.84
2022-09-24T05:34:00,atd,16.91
2022-09-24T05:35:00,atd,18.84
2022-09-24T05:36:00,atd,16.54
2022-09-24T05:37:00,atd,17.28
2022-09-24T05:38:00,atd,21.22
2022-09-24T05:39:00,atd,25.92
2022-09-24T05:40:00,atd,27.08
2022-09-24T05:41:00,atd,26.85
2022-09-24T05:42:00,atd,27.65
2022-09-24T05:43:00,atd,21.64
2022-09-24T05:44:00,atd,23.62
2022-09-24T05:45:00,atd,36.26
2022-09-24T05:46:00,atd,35.10
2022-09-24T05:47:00,atd,37.31
2022-09-24T05:48:00,atd,32.32
2022-09-24T05:49:00,atd,20.62
2022-09-24T05:50:00,atd,21.52
2022-09-24T05:51:00,atd,20.48
2022-09-24T05:52:00,atd,19.24
2022-09-24T05:53:00,atd,21.04
2022-09-24T05:54:00,atd,22.99
2022-09-24T05:55:00,atd,22.08
2022-09-24T05:56:00,atd,20.59
2022-09-24T05:57:00,atd,20.74
2022-09-24T05:58:00,atd,21.26
2022-09-24T05:59:00,atd,32.22
2022-09-24T06:00:00,atd,18.76
2022-09-24T06:01:00,atd,22.87
2022-09-24T06:02:00,atd,28.54
2022-09-24T06:03:00,atd,28.22
2022-09-24T06:04:00,atd,26.01
2022-09-24T06:05:00,atd,30.75
2022-09-24T06:06:00,atd,30.63
2022-09-24T06:07:00,atd,29.20
2022-09-24T06:08:00,atd,38.43
2022-09-24T06:09:00,atd,29.34
2022-09-24T06:10:00,atd,30.28
2022-09-24T06:11:00,atd,32.72
2022-09-24T06:12:00,atd,34.64
2022-09-24T06:13:00,atd,34.57
2022-09-24T06:14:00,atd,36.06
2022-09-24T06:15:00,atd,33.28
2022-09-24T06:16:00,atd,30.55
2022-09-24T06:17:00,atd,30.25
2022-09-24T06:18:00,atd,45.18
2022-09-24T06:19:00,atd,34.91
2022-09-24T06:20:00,atd,33.70
2022-09-24T06:21:00,atd,30.67
2022-09-24T06:22:00,atd,29.86
2022-09-24T06:23:00,atd,29.24
2022-09-24T06:24:00,atd,27.66
2022-09-24T06:25:00,atd,31.13
2022-09-24T06:26:00,atd,28.03
2022-09-24T06:27:00,atd,29.52
2022-09-24T06:28:00,atd,29.10
2022-09-24T06:29:00,atd,30.67
2022-09-24T06:30:00,atd,29.75
2022-09-24T06:31:00,atd,33.31
2022-09-24T06:32:00,atd,29.66
2022-09-24T06:33:00,atd,25.32
2022-09-24T06:34:00,atd,25.08
2022-09-24T06:35:00,atd,26.36
2022-09-24T06:36:00,atd,36.88
2022-09-24T06:37:00,atd,27.74
2022-09-24T06:38:00,atd,26.95
2022-09-24T06:39:00,atd,27.85
2022-09-24T06:40:00,atd,28.09
2022-09-24T06:41:00,atd,37.40
2022-09-24T06:42:00,atd,38.06
2022-09-24T06:43:00,atd,37.98
2022-09-24T06:44:00,atd,41.39
2022-09-24T06:45:00,atd,40.66
2022-09-24T06:46:00,atd,43.88
2022-09-24T06:47:00,atd,44.25
2022-09-24T06:48:00,atd,43.79
2022-09-24T06:49:00,atd,41.53
2022-09-24T06:50:00,atd,41.70
2022-09-24T06:51:00,atd,37.63
2022-09-24T06:52:00,atd,40.68
2022-09-24T06:53:00,atd,39.63
2022-09-24T06:54:00,atd,24.74
2022-09-24T06:55:00,atd,27.56
2022-09-24T06:56:00,atd,29.70
2022-09-24T06:57:00,atd,26.95
2022-09-24T06:58:00,atd,25.37
2022-09-24T06:59:00,atd,26.37
2022-09-24T07:00:00,atd,31.01
2022-09-24T07:01:00,atd,28.54
2022-09-24T07:02:00,atd,30.92
2022-09-24T07:03:00,atd,30.78
2022-09-24T07:04:00,atd,30.06
2022-09-24T07:05:00,atd,32.55
2022-09-24T07:06:00,atd,25.59
2022-09-24T07:07:00,atd,24.70
2022-09-24T07:08:00,atd,26.55
2022-09-24T07:09:00,atd,37.16
2022-09-24T07:10:00,atd,25.05
2022-09-24T07:11:00,atd,24.68
2022-09-24T07:12:00,atd,28.62
2022-09-24T07:13:00,atd,29.22
2022-09-24T07:14:00,atd,25.78
2022-09-24T07:15:00,atd,24.67
2022-09-24T07:16:00,atd,26.93
2022-09-24T07:17:00,atd,28.29
2022-09-24T07:18:00,atd,27.78
2022-09-24T07:19:00,atd,26.46
2022-09-24T07:20:00,atd,29.02
2022-09-24T07:21:00,atd,27.01
2022-09-24T07:22:00,atd,29.42
2022-09-24T07:23:00,atd,23.59
2022-09-24T07:24:00,atd,29.64
2022-09-24T07:25:00,atd,26.53
2022-09-24T07:26:00,atd,24.18
2022-09-24T07:27:00,atd,26.49
2022-09-24T07:28:00,atd,25.54
2022-09-24T07:29:00,atd,27.10
2022-09-24T07:30:00,atd,24.80
2022-09-24T07:31:00,atd,25.53
2022-09-24T07:32:00,atd,23.67
2022-09-24T07:33:00,atd,22.38
2022-09-24T07:34:00,atd,23.89
2022-09-24T07:35:00,atd,25.44
2022-09-24T07:36:00,atd,29.14
2022-09-24T07:37:00,atd,32.77
2022-09-24T07:38:00,atd,37.73
2022-09-24T07:39:00,atd,32.59
2022-09-24T07:40:00,atd,36.13
2022-09-24T07:41:00,atd,41.41
2022-09-24T07:42:00,atd,33.14
2022-09-24T07:43:00,atd,30.88
2022-09-24T07:44:00,atd,32.86
2022-09-24T07:45:00,atd,24.85
2022-09-24T07:46:00,atd,22.19
2022-09-24T07:47:00,atd,33.19
2022-09-24T07:48:00,atd,23.26
2022-09-24T07:49:00,atd,26.28
2022-09-24T07:50:00,atd,23.76
2022-09-24T07:51:00,atd,33.98
2022-09-24T07:52:00,atd,33.76
2022-09-24T07:53:00,atd,41.09
2022-09-24T07:54:00,atd,45.29
2022-09-24T07:55:00,atd,44.24
2022-09-24T07:56:00,atd,49.19
2022-09-24T07:57:00,atd,44.08
2022-09-24T07:58:00,atd,46.18
2022-09-24T07:59:00,atd,46.76
2022-09-24T08:00:00,atd,50.28
2022-09-24T08:01:00,atd,48.39
2022-09-24T08:02:00,atd,37.00
2022-09-24T08:03:00,atd,48.51
2022-09-24T08:04:00,atd,45.95
2022-09-24T08:05:00,atd,45.07
2022-09-24T08:06:00,atd,47.37
2022-09-24T08:07:00,atd,50.84
2022-09-24T08:08:00,atd,39.24
2022-09-24T08:09:00,atd,40.98
2022-09-24T08:10:00,atd,38.23
2022-09-24T08:11:00,atd,33.57
2022-09-24T08:12:00,atd,35.31
2022-09-24T08:13:00,atd,32.67
2022-09-24T08:14:00,atd,41.76
2022-09-24T08:15:00,atd,34.62
2022-09-24T08:16:00,atd,32.35
2022-09-24T08:17:00,atd,32.44
2022-09-24T08:18:00,atd,35.82
2022-09-24T08:19:00,atd,28.26
2022-09-24T08:20:00,atd,33.20
2022-09-24T08:21:00,atd,28.41
2022-09-24T08:22:00,atd,28.60
2022-09-24T08:23:00,atd,28.22
2022-09-24T08:24:00,atd,31.99
2022-09-24T08:25:00,atd,34.06
2022-09-24T08:26:00,atd,31.85
2022-09-24T08:27:00,atd,31.61
2022-09-24T08:28:00,atd,37.70
2022-09-24T08:29:00,atd,38.20
2022-09-24T08:30:00,atd,34.87
2022-09-24T08:31:00,atd,36.32
2022-09-24T08:32:00,atd,27.19
2022-09-24T08:33:00,atd,28.96
2022-09-24T08:34:00,atd,40.83
2022-09-24T08:35:00,atd,27.93
2022-09-24T08:36:00,atd,26.91
2022-09-24T08:37:00,atd,27.79
2022-09-24T08:38:00,atd,27.02
2022-09-24T08:39:00,atd,27.48
2022-09-24T08:40:00,atd,34.47
2022-09-24T08:41:00,atd,31.96
2022-09-24T08:42:00,atd,30.64
2022-09-24T08:43:00,atd,34.14
2022-09-24T08:44:00,atd,30.92
2022-09-24T08:45:00,atd,32.69
2022-09-24T08:46:00,atd,34.28
2022-09-24T08:47:00,atd,28.07
2022-09-24T08:48:00,atd,28.73
2022-09-24T08:49:00,atd,30.69
2022-09-24T08:50:00,atd,41.12
2022-09-24T08:51:00,atd,38.52
2022-09-24T08:52:00,atd,50.58
2022-09-24T08:53:00,atd,25.71
2022-09-24T08:54:00,atd,30.08
2022-09-24T08:55:00,atd,26.41
2022-09-24T08:56:00,atd,29.19
2022-09-24T08:57:00,atd,28.26
2022-09-24T08:58:00,atd,30.84
2022-09-24T08:59:00,atd,29.60
2022-09-24T09:00:00,atd,30.00
2022-09-24T09:01:00,atd,31.60
2022-09-24T09:02:00,atd,33.48
2022-09-24T09:03:00,atd,31.71
2022-09-24T09:04:00,atd,33.53
2022-09-24T09:05:00,atd,32.51
2022-09-24T09:06:00,atd,32.60
2022-09-24T09:07:00,atd,30.88
2022-09-24T09:08:00,atd,29.11
2022-09-24T09:09:00,atd,40.66
2022-09-24T09:10:00,atd,28.18
2022-09-24T09:11:00,atd,32.54
2022-09-24T09:12:00,atd,33.00
2022-09-24T09:13:00,atd,30.62
2022-09-24T09:14:00,atd,30.23
2022-09-24T09:15:00,atd,27.07
2022-09-24T09:16:00,atd,29.39
2022-09-24T09:17:00,atd,33.18
2022-09-24T09:18:00,atd,35.96
2022-09-24T09:19:00,atd,39.45
2022-09-24T09:20:00,atd,54.77
2022-09-24T09:21:00,atd,41.83
2022-09-24T09:22:00,atd,44.30
2022-09-24T09:23:00,atd,44.19
2022-09-24T09:24:00,atd,44.66
2022-09-24T09:25:00,atd,42.89
2022-09-24T09:26:00,atd,47.76
2022-09-24T09:27:00,atd,42.60
2022-09-24T09:28:00,atd,42.54
2022-09-24T09:29:00,atd,44.47
2022-09-24T09:30:00,atd,40.47
2022-09-24T09:31:00,atd,42.62
2022-09-24T09:32:00,atd,39.84
2022-09-24T09:33:00,atd,39.23
2022-09-24T09:34:00,atd,38.20
2022-09-24T09:35:00,atd,40.79
2022-09-24T09:36:00,atd,38.06
2022-09-24T09:37:00,atd,43.03
2022-09-24T09:38:00,atd,42.26
2022-09-24T09:39:00,atd,44.11
2022-09-24T09:40:00,atd,42.55
2022-09-24T09:41:00,atd,44.44
2022-09-24T09:42:00,atd,41.78
2022-09-24T09:43:00,atd,45.59
2022-09-24T09:44:00,atd,39.69
2022-09-24T09:45:00,atd,37.68
2022-09-24T09:46:00,atd,42.66
2022-09-24T09:47:00,atd,43.15
2022-09-24T09:48:00,atd,43.18
2022-09-24T09:49:00,atd,43.42
2022-09-24T09:50:00,atd,44.61
2022-09-24T09:51:00,atd,38.79
2022-09-24T09:52:00,atd,40.36
2022-09-24T09:53:00,atd,40.01
2022-09-24T09:54:00,atd,37.00
2022-09-24T09:55:00,atd,36.88
2022-09-24T09:56:00,atd,38.48
2022-09-24T09:57:00,atd,42.13
2022-09-24T09:58:00,atd,40.75
2022-09-24T09:59:00,atd,42.89
2022-09-24T10:00:00,atd,44.39
2022-09-24T10:01:00,atd,43.73
2022-09-24T10:02:00,atd,39.34
2022-09-24T10:03:00,atd,38.45
2022-09-24T10:04:00,atd,52.44
2022-09-24T10:05:00,atd,38.68
2022-09-24T10:06:00,atd,39.46
2022-09-24T10:07:00,atd,40.10
2022-09-24T10:08:00,atd,40.16
2022-09-24T10:09:00,atd,39.52
2022-09-24T10:10:00,atd,37.04
2022-09-24T10:11:00,atd,40.65
2022-09-24T10:12:00,atd,39.15
2022-09-24T10:13:00,atd,38.35
2022-09-24T10:14:00,atd,41.00
2022-09-24T10:15:00,atd,41.45
2022-09-24T10:16:00,atd,41.29
2022-09-24T10:17:00,atd,38.63
2022-09-24T10:18:00,atd,41.20
2022-09-24T10:19:00,atd,38.61
2022-09-24T10:20:00,atd,39.91
2022-09-24T10:21:00,atd,48.86
2022-09-24T10:22:00,atd,37.43
2022-09-24T10:23:00,atd,36.84
2022-09-24T10:24:00,atd,39.16
2022-09-24T10:25:00,atd,38.42
2022-09-24T10:26:00,atd,38.25
2022-09-24T10:27:00,atd,45.84
2022-09-24T10:28:00,atd,48.12
2022-09-24T10:29:00,atd,45.33
2022-09-24T10:30:00,atd,44.37
2022-09-24T10:31:00,atd,49.49
2022-09-24T10:32:00,atd,50.49
2022-09-24T10:33:00,atd,50.88
2022-09-24T10:34:00,atd,48.20
2022-09-24T10:35:00,atd,45.98
2022-09-24T10:36:00,atd,43.18
2022-09-24T10:37:00,atd,47.32
2022-09-24T10:38:00,atd,44.40
2022-09-24T10:39:00,atd,38.76
2022-09-24T10:40:00,atd,40.10
2022-09-24T10:41:00,atd,36.65
2022-09-24T10:42:00,atd,41.64
2022-09-24T10:43:00,atd,43.22
2022-09-24T10:44:00,atd,44.08
2022-09-24T10:45:00,atd,41.92
2022-09-24T10:46:00,atd,43.52
2022-09-24T10:47:00,atd,54.00
2022-09-24T10:48:00,atd,55.09
2022-09-24T10:49:00,atd,51.91
2022-09-24T10:50:00,atd,38.42
2022-09-24T10:51:00,atd,40.98
2022-09-24T10:52:00,atd,41.91
2022-09-24T10:53:00,atd,42.96
2022-09-24T10:54:00,atd,45.22
2022-09-24T10:55:00,atd,43.05
2022-09-24T10:56:00,atd,43.46
2022-09-24T10:57:00,atd,56.89
2022-09-24T10:58:00,atd,44.62
2022-09-24T10:59:00,atd,40.21
2022-09-24T11:00:00,atd,38.21
2022-09-24T11:01:00,atd,39.34
2022-09-24T11:02:00,atd,38.82
2022-09-24T11:03:00,atd,42.36
2022-09-24T11:04:00,atd,41.55
2022-09-24T11:05:00,atd,45.03
2022-09-24T11:06:00,atd,42.44
2022-09-24T11:07:00,atd,42.39
2022-09-24T11:08:00,atd,43.76
2022-09-24T11:09:00,atd,44.74
2022-09-24T11:10:00,atd,48.47
2022-09-24T11:11:00,atd,45.09
2022-09-24T11:12:00,atd,60.62
2022-09-24T11:13:00,atd,50.18
2022-09-24T11:14:00,atd,48.50
2022-09-24T11:15:00,atd,49.45
2022-09-24T11:16:00,atd,44.41
2022-09-24T11:17:00,atd,43.30
2022-09-24T11:18:00,atd,41.34
2022-09-24T11:19:00,atd,41.90
2022-09-24T11:20:00,atd,43.41
2022-09-24T11:21:00,atd,45.34
2022-09-24T11:22:00,atd,44.70
2022-09-24T11:23:00,atd,40.40
2022-09-24T11:24:00,atd,37.61
2022-09-24T11:25:00,atd,38.44
2022-09-24T11:26:00,atd,36.91
2022-09-24T11:27:00,atd,39.24
2022-09-24T11:28:00,atd,42.14
2022-09-24T11:29:00,atd,41.41
2022-09-24T11:30:00,atd,43.70
2022-09-24T11:31:00,atd,56.62
2022-09-24T11:32:00,atd,44.02
2022-09-24T11:33:00,atd,43.40
2022-09-24T11:34:00,atd,39.79
2022-09-24T11:35:00,atd,42.77
2022-09-24T11:36:00,atd,39.05
2022-09-24T11:37:00,atd,39.41
2022-09-24T11:38:00,atd,40.42
2022-09-24T11:39:00,atd,39.30
2022-09-24T11:40:00,atd,46.59
2022-09-24T11:41:00,atd,38.83
2022-09-24T11:42:00,atd,39.15
2022-09-24T11:43:00,atd,44.66
2022-09-24T11:44:00,atd,44.43
2022-09-24T11:45:00,atd,41.86
2022-09-24T11:46:00,atd,44.60
2022-09-24T11:47:00,atd,64.77
2022-09-24T11:48:00,atd,43.49
2022-09-24T11:49:00,atd,40.68
2022-09-24T11:50:00,atd,51.01
2022-09-24T11:51:00,atd,51.27
2022-09-24T11:52:00,atd,56.17
2022-09-24T11:53:00,atd,62.25
2022-09-24T11:54:00,atd,65.23
2022-09-24T11:55:00,atd,60.78
2022-09-24T11:56:00,atd,77.53
2022-09-24T11:57:00,atd,84.09
2022-09-24T11:58:00,atd,89.66
2022-09-24T11:59:00,atd,86.28
2022-09-24T12:00:00,atd,88.45
2022-09-24T12:01:00,atd,85.27
2022-09-24T12:02:00,atd,86.53
2022-09-24T12:03:00,atd,84.83
2022-09-24T12:04:00,atd,84.00
2022-09-24T12:05:00,atd,82.91
2022-09-24T12:06:00,atd,96.17
2022-09-24T12:07:00,atd,82.82
2022-09-24T12:08:00,atd,80.93
2022-09-24T12:09:00,atd,80.40
2022-09-24T12:10:00,atd,77.72
2022-09-24T12:11:00,atd,80.22
2022-09-24T12:12:00,atd,80.50
2022-09-24T12:13:00,atd,80.83
2022-09-24T12:14:00,atd,80.89
2022-09-24T12:15:00,atd,48.06
2022-09-24T12:16:00,atd,45.20
2022-09-24T12:17:00,atd,48.07
2022-09-24T12:18:00,atd,47.04
2022-09-24T12:19:00,atd,48.64
2022-09-24T12:20:00,atd,47.88
2022-09-24T12:21:00,atd,49.72
2022-09-24T12:22:00,atd,48.73
2022-09-24T12:23:00,atd,84.02
2022-09-24T12:24:00,atd,88.20
2022-09-24T12:25:00,atd,91.40
2022-09-24T12:26:00,atd,80.60
2022-09-24T12:27:00,atd,82.95
2022-09-24T12:28:00,atd,83.80
2022-09-24T12:29:00,atd,91.23
2022-09-24T12:30:00,atd,43.97
2022-09-24T12:31:00,atd,40.66
2022-09-24T12:32:00,atd,38.88
2022-09-24T12:33:00,atd,37.27
2022-09-24T12:34:00,atd,44.18
2022-09-24T12:35:00,atd,40.07
2022-09-24T12:36:00,atd,47.62
2022-09-24T12:37:00,atd,46.27
2022-09-24T12:38:00,atd,48.54
2022-09-24T12:39:00,atd,46.25
2022-09-24T12:40:00,atd,47.95
2022-09-24T12:41:00,atd,46.29
2022-09-24T12:42:00,atd,43.02
2022-09-24T12:43:00,atd,46.41
2022-09-24T12:44:00,atd,43.99
2022-09-24T12:45:00,atd,50.25
2022-09-24T12:46:00,atd,41.83
2022-09-24T12:47:00,atd,90.46
2022-09-24T12:48:00,atd,79.65
2022-09-24T12:49:00,atd,84.37
2022-09-24T12:50:00,atd,86.57
2022-09-24T12:51:00,atd,81.62
2022-09-24T12:52:00,atd,43.83
2022-09-24T12:53:00,atd,46.04
2022-09-24T12:54:00,atd,41.13
2022-09-24T12:55:00,atd,43.84
2022-09-24T12:56:00,atd,41.33
2022-09-24T12:57:00,atd,50.15
2022-09-24T12:58:00,atd,45.71
2022-09-24T12:59:00,atd,44.49
2022-09-24T13:00:00,atd,47.80
2022-09-24T13:01:00,atd,44.58
2022-09-24T13:02:00,atd,44.09
2022-09-24T13:03:00,atd,44.98
2022-09-24T13:04:00,atd,55.97
2022-09-24T13:05:00,atd,55.98
2022-09-24T13:06:00,atd,48.01
2022-09-24T13:07:00,atd,58.26
2022-09-24T13:08:00,atd,41.98
2022-09-24T13:09:00,atd,79.96
2022-09-24T13:10:00,atd,84.01
2022-09-24T13:11:00,atd,81.53
2022-09-24T13:12:00,atd,79.73
2022-09-24T13:13:00,atd,42.79
2022-09-24T13:14:00,atd,51.20
2022-09-24T13:15:00,atd,38.42
2022-09-24T13:16:00,atd,39.15
2022-09-24T13:17:00,atd,38.23
2022-09-24T13:18:00,atd,43.28